Tracking 35274 objects as of 12-Sep-2026
HD Live streaming from Space Station
objects crossing your sky now

STARLINK-31977

Track STARLINK-31977 now!
10-day predictions
STARLINK-31977 is classified as:


NORAD ID: 59892
Int'l Code: 2024-100H
Launch date: May 28, 2024
Source: United States (US)
Launch site: AIR FORCE EASTERN TEST RANGE (AFETR)
Your satellite tracking list
Your tracking list is empty




NASA's NSSDC Master Catalog

Two Line Element Set (TLE):
1 59892U 24100H   26254.73476255 -.00005934  00000-0 -20658-3 0  9995
2 59892  42.9985 147.4802 0000735 308.8575  51.2211 15.27533585129692
Source of the keplerian elements: AFSPC